Time,TemperatureF,DewpointF,PressureIn,WindDirection,WindDirectionDegrees,WindSpeedMPH,WindSpeedGustMPH,Humidity,HourlyPrecipIn,Conditions,Clouds,dailyrainin,SoftwareType,DateUTC
2013-02-17 00:00:00,33.7,20.8,30.00,SE,135,0.2,0.4,59,0.00,,,0.00,WUHU216HW,2013-02-17 06:00:00,
2013-02-17 00:05:00,33.7,20.8,30.00,SSE,152,0.8,1.1,59,0.00,,,0.00,WUHU216HW,2013-02-17 06:05:00,
2013-02-17 00:10:00,33.7,20.8,30.00,SE,135,0.0,1.1,59,0.00,,,0.00,WUHU216HW,2013-02-17 06:10:00,
2013-02-17 00:15:00,33.8,21.0,30.00,SE,135,1.8,1.8,59,0.00,,,0.00,WUHU216HW,2013-02-17 06:15:00,
2013-02-17 00:20:00,33.8,20.5,30.00,South,178,1.5,1.8,58,0.00,,,0.00,WUHU216HW,2013-02-17 06:20:00,
2013-02-17 00:25:00,33.8,20.5,30.00,SE,142,0.6,2.2,58,0.00,,,0.00,WUHU216HW,2013-02-17 06:25:00,
2013-02-17 00:30:00,33.8,21.0,30.00,SE,135,1.1,2.2,59,0.00,,,0.00,WUHU216HW,2013-02-17 06:30:00,
2013-02-17 00:35:00,33.8,20.5,30.00,SE,138,1.5,2.5,58,0.00,,,0.00,WUHU216HW,2013-02-17 06:35:00,
2013-02-17 00:40:00,33.8,20.5,30.00,ESE,113,1.6,2.5,58,0.00,,,0.00,WUHU216HW,2013-02-17 06:40:00,
2013-02-17 00:45:00,33.8,20.5,30.00,SSE,158,1.8,1.8,58,0.00,,,0.00,WUHU216HW,2013-02-17 06:45:00,
2013-02-17 00:50:00,34.0,20.7,30.00,ESE,113,1.1,1.8,58,0.00,,,0.00,WUHU216HW,2013-02-17 06:50:00,
2013-02-17 00:55:00,34.0,20.4,30.00,SSE,158,1.0,1.8,57,0.00,,,0.00,WUHU216HW,2013-02-17 06:55:00,
2013-02-17 01:00:00,34.0,20.4,30.00,SSE,165,0.3,2.2,57,0.00,,,0.00,WUHU216HW,2013-02-17 07:00:00,
2013-02-17 01:05:00,34.2,20.5,30.00,ESE,120,0.3,3.4,57,0.00,,,0.00,WUHU216HW,2013-02-17 07:05:00,
2013-02-17 01:10:00,34.0,20.4,29.99,SSE,158,0.4,3.4,57,0.00,,,0.00,WUHU216HW,2013-02-17 07:10:00,
2013-02-17 01:15:00,34.0,20.4,29.99,East,90,0.6,1.6,57,0.00,,,0.00,WUHU216HW,2013-02-17 07:15:00,
2013-02-17 01:20:00,34.2,20.5,29.99,SE,146,1.7,2.5,57,0.00,,,0.00,WUHU216HW,2013-02-17 07:20:00,
2013-02-17 01:25:00,34.2,20.5,29.99,South,171,2.5,4.0,57,0.00,,,0.00,WUHU216HW,2013-02-17 07:25:00,
2013-02-17 01:30:00,34.2,20.5,29.99,SSE,158,0.8,4.0,57,0.00,,,0.00,WUHU216HW,2013-02-17 07:30:00,
2013-02-17 01:35:00,34.0,20.4,29.98,SE,135,0.4,2.2,57,0.00,,,0.00,WUHU216HW,2013-02-17 07:35:00,
2013-02-17 01:40:00,34.2,20.5,29.98,SE,135,2.9,2.9,57,0.00,,,0.00,WUHU216HW,2013-02-17 07:40:00,
2013-02-17 01:45:00,34.2,20.5,29.99,SE,135,0.8,2.9,57,0.00,,,0.00,WUHU216HW,2013-02-17 07:45:00,
2013-02-17 01:50:00,34.2,20.5,29.98,SSE,151,0.7,3.1,57,0.00,,,0.00,WUHU216HW,2013-02-17 07:50:00,
2013-02-17 01:55:00,34.2,20.5,29.98,South,180,2.5,3.1,57,0.00,,,0.00,WUHU216HW,2013-02-17 07:55:00,
2013-02-17 02:00:00,34.2,20.5,29.98,SE,135,0.4,2.7,57,0.00,,,0.00,WUHU216HW,2013-02-17 08:00:00,
2013-02-17 02:05:00,34.2,20.9,29.98,SSE,153,1.9,3.4,58,0.00,,,0.00,WUHU216HW,2013-02-17 08:05:00,
2013-02-17 02:10:00,34.2,20.9,29.98,ESE,121,1.5,3.4,58,0.00,,,0.00,WUHU216HW,2013-02-17 08:10:00,
2013-02-17 02:15:00,34.2,20.9,29.98,ESE,113,2.2,2.5,58,0.00,,,0.00,WUHU216HW,2013-02-17 08:15:00,
2013-02-17 02:20:00,34.2,20.9,29.97,ESE,113,2.0,2.2,58,0.00,,,0.00,WUHU216HW,2013-02-17 08:20:00,
2013-02-17 02:25:00,34.2,20.9,29.97,ESE,113,2.0,3.1,58,0.00,,,0.00,WUHU216HW,2013-02-17 08:25:00,
2013-02-17 02:30:00,34.2,20.5,29.97,SE,135,0.9,3.1,57,0.00,,,0.00,WUHU216HW,2013-02-17 08:30:00,
2013-02-17 02:35:00,34.2,20.9,29.97,SSE,158,0.8,1.8,58,0.00,,,0.00,WUHU216HW,2013-02-17 08:35:00,
2013-02-17 02:40:00,34.2,20.9,29.97,SSE,158,0.6,1.8,58,0.00,,,0.00,WUHU216HW,2013-02-17 08:40:00,
2013-02-17 02:45:00,34.2,20.5,29.97,SSE,158,1.6,1.8,57,0.00,,,0.00,WUHU216HW,2013-02-17 08:45:00,
2013-02-17 02:50:00,34.2,20.9,29.97,SE,135,1.3,1.6,58,0.00,,,0.00,WUHU216HW,2013-02-17 08:50:00,
2013-02-17 02:55:00,34.2,20.5,29.97,SSE,158,1.8,2.5,57,0.00,,,0.00,WUHU216HW,2013-02-17 08:55:00,
2013-02-17 03:00:00,34.2,20.5,29.97,SSE,158,1.8,2.5,57,0.00,,,0.00,WUHU216HW,2013-02-17 09:00:00,
2013-02-17 03:05:00,34.2,20.5,29.97,SE,135,0.9,1.8,57,0.00,,,0.00,WUHU216HW,2013-02-17 09:05:00,
2013-02-17 03:10:00,34.4,20.3,29.97,SSE,158,0.4,1.8,56,0.00,,,0.00,WUHU216HW,2013-02-17 09:10:00,
2013-02-17 03:15:00,34.4,20.3,29.96,SE,139,1.0,2.2,56,0.00,,,0.00,WUHU216HW,2013-02-17 09:15:00,
2013-02-17 03:20:00,34.6,20.4,29.96,SSE,158,1.6,2.5,56,0.00,,,0.00,WUHU216HW,2013-02-17 09:20:00,
2013-02-17 03:25:00,34.4,20.3,29.96,SSE,158,1.1,2.5,56,0.00,,,0.00,WUHU216HW,2013-02-17 09:25:00,
2013-02-17 03:30:00,34.2,20.1,29.96,South,180,0.9,1.8,56,0.00,,,0.00,WUHU216HW,2013-02-17 09:30:00,
2013-02-17 03:35:00,34.2,20.1,29.96,South,180,0.6,1.6,56,0.00,,,0.00,WUHU216HW,2013-02-17 09:35:00,
2013-02-17 03:40:00,34.0,19.9,29.96,SE,135,0.4,1.6,56,0.00,,,0.00,WUHU216HW,2013-02-17 09:40:00,
2013-02-17 03:45:00,33.7,20.0,29.96,SSE,165,0.3,1.1,57,0.00,,,0.00,WUHU216HW,2013-02-17 09:45:00,
2013-02-17 03:50:00,33.5,20.3,29.96,SE,135,0.4,1.1,58,0.00,,,0.00,WUHU216HW,2013-02-17 09:50:00,
2013-02-17 03:55:00,33.1,19.9,29.96,ESE,113,0.4,0.7,58,0.00,,,0.00,WUHU216HW,2013-02-17 09:55:00,
2013-02-17 04:00:00,32.9,19.7,29.96,SE,135,0.1,1.1,58,0.00,,,0.00,WUHU216HW,2013-02-17 10:00:00,
2013-02-17 04:05:00,32.9,19.7,29.95,SE,135,0.4,1.1,58,0.00,,,0.00,WUHU216HW,2013-02-17 10:05:00,
2013-02-17 04:10:00,32.9,20.2,29.96,ESE,113,0.2,0.7,59,0.00,,,0.00,WUHU216HW,2013-02-17 10:10:00,
2013-02-17 04:15:00,32.8,20.4,29.95,SE,135,0.4,1.1,60,0.00,,,0.00,WUHU216HW,2013-02-17 10:15:00,
2013-02-17 04:20:00,32.6,20.3,29.95,SSE,152,0.8,1.3,60,0.00,,,0.00,WUHU216HW,2013-02-17 10:20:00,
2013-02-17 04:25:00,32.4,20.5,29.95,SSE,158,0.4,1.8,61,0.00,,,0.00,WUHU216HW,2013-02-17 10:25:00,
2013-02-17 04:30:00,32.2,20.4,29.95,SSE,158,0.2,1.8,61,0.00,,,0.00,WUHU216HW,2013-02-17 10:30:00,
2013-02-17 04:35:00,32.0,19.8,29.95,SE,141,0.8,1.1,60,0.00,,,0.00,WUHU216HW,2013-02-17 10:35:00,
2013-02-17 04:40:00,32.2,20.4,29.95,SE,135,0.2,1.1,61,0.00,,,0.00,WUHU216HW,2013-02-17 10:40:00,
2013-02-17 04:45:00,32.0,20.5,29.95,SE,135,1.3,1.3,62,0.00,,,0.00,WUHU216HW,2013-02-17 10:45:00,
2013-02-17 04:50:00,32.0,20.5,29.95,SE,135,0.4,1.3,62,0.00,,,0.00,WUHU216HW,2013-02-17 10:50:00,
2013-02-17 04:55:00,31.9,20.3,29.95,SSE,158,0.4,1.3,62,0.00,,,0.00,WUHU216HW,2013-02-17 10:55:00,
2013-02-17 05:00:00,31.9,20.3,29.95,SSE,158,0.2,0.4,62,0.00,,,0.00,WUHU216HW,2013-02-17 11:00:00,
2013-02-17 05:05:00,31.7,20.5,29.95,SE,135,0.4,0.4,63,0.00,,,0.00,WUHU216HW,2013-02-17 11:05:00,
2013-02-17 05:10:00,31.5,20.3,29.95,SE,135,0.4,1.1,63,0.00,,,0.00,WUHU216HW,2013-02-17 11:10:00,
2013-02-17 05:15:00,31.3,20.2,29.95,SSE,158,0.9,1.1,63,0.00,,,0.00,WUHU216HW,2013-02-17 11:15:00,
2013-02-17 05:20:00,31.3,20.2,29.95,SE,135,0.2,0.9,63,0.00,,,0.00,WUHU216HW,2013-02-17 11:20:00,
2013-02-17 05:25:00,31.3,20.5,29.95,SE,135,0.4,1.8,64,0.00,,,0.00,WUHU216HW,2013-02-17 11:25:00,
2013-02-17 05:30:00,31.1,20.3,29.95,SSE,158,1.6,1.8,64,0.00,,,0.00,WUHU216HW,2013-02-17 11:30:00,
2013-02-17 05:35:00,31.1,20.3,29.95,South,180,0.9,1.6,64,0.00,,,0.00,WUHU216HW,2013-02-17 11:35:00,
2013-02-17 05:40:00,31.0,20.2,29.95,ESE,113,0.0,0.9,64,0.00,,,0.00,WUHU216HW,2013-02-17 11:40:00,
2013-02-17 05:45:00,30.8,20.0,29.96,SSE,158,0.2,0.4,64,0.00,,,0.00,WUHU216HW,2013-02-17 11:45:00,
2013-02-17 05:50:00,30.6,20.2,29.95,SE,135,0.1,0.4,65,0.00,,,0.00,WUHU216HW,2013-02-17 11:50:00,
2013-02-17 05:55:00,30.4,20.0,29.95,SE,135,0.0,0.2,65,0.00,,,0.00,WUHU216HW,2013-02-17 11:55:00,
2013-02-17 06:00:00,30.4,20.3,29.95,SSE,158,0.2,0.4,66,0.00,,,0.00,WUHU216HW,2013-02-17 12:00:00,
2013-02-17 06:05:00,30.6,20.5,29.96,SSE,158,0.7,1.1,66,0.00,,,0.00,WUHU216HW,2013-02-17 12:05:00,
2013-02-17 06:10:00,30.6,20.5,29.96,SE,135,0.1,1.1,66,0.00,,,0.00,WUHU216HW,2013-02-17 12:10:00,
2013-02-17 06:15:00,30.6,20.5,29.96,SE,135,0.2,0.7,66,0.00,,,0.00,WUHU216HW,2013-02-17 12:15:00,
2013-02-17 06:20:00,30.4,20.0,29.95,ESE,113,0.0,0.2,65,0.00,,,0.00,WUHU216HW,2013-02-17 12:20:00,
2013-02-17 06:25:00,30.2,20.2,29.96,ESE,113,0.2,0.2,66,0.00,,,0.00,WUHU216HW,2013-02-17 12:25:00,
2013-02-17 06:30:00,29.9,19.8,29.96,SSE,158,0.0,0.4,66,0.00,,,0.00,WUHU216HW,2013-02-17 12:30:00,
2013-02-17 06:35:00,29.9,19.8,29.96,SSE,158,0.2,0.4,66,0.00,,,0.00,WUHU216HW,2013-02-17 12:35:00,
2013-02-17 06:40:00,29.9,20.2,29.96,ESE,113,0.4,0.4,67,0.00,,,0.00,WUHU216HW,2013-02-17 12:40:00,
2013-02-17 06:45:00,29.9,19.8,29.96,SE,135,0.2,0.4,66,0.00,,,0.00,WUHU216HW,2013-02-17 12:45:00,
2013-02-17 06:50:00,30.1,20.0,29.95,SE,135,0.4,1.1,66,0.00,,,0.00,WUHU216HW,2013-02-17 12:50:00,
2013-02-17 06:55:00,30.1,20.0,29.95,South,180,0.4,1.1,66,0.00,,,0.00,WUHU216HW,2013-02-17 12:55:00,
2013-02-17 07:00:00,29.9,19.8,29.95,SSE,158,0.4,2.2,66,0.00,,,0.00,WUHU216HW,2013-02-17 13:00:00,
2013-02-17 07:05:00,30.1,20.0,29.95,SSE,154,0.7,2.2,66,0.00,,,0.00,WUHU216HW,2013-02-17 13:05:00,
2013-02-17 07:10:00,30.2,20.2,29.95,SSE,155,0.9,1.1,66,0.00,,,0.00,WUHU216HW,2013-02-17 13:10:00,
2013-02-17 07:15:00,30.2,20.2,29.95,SE,135,0.2,1.1,66,0.00,,,0.00,WUHU216HW,2013-02-17 13:15:00,
2013-02-17 07:20:00,30.6,20.5,29.95,SE,135,0.9,0.9,66,0.00,,,0.00,WUHU216HW,2013-02-17 13:20:00,
2013-02-17 07:25:00,31.3,20.9,29.95,SSE,158,0.1,1.1,65,0.00,,,0.00,WUHU216HW,2013-02-17 13:25:00,
2013-02-17 07:30:00,31.7,20.9,29.95,SE,135,0.2,1.1,64,0.00,,,0.00,WUHU216HW,2013-02-17 13:30:00,
2013-02-17 07:35:00,31.7,20.9,29.95,SE,135,0.2,0.4,64,0.00,,,0.00,WUHU216HW,2013-02-17 13:35:00,
2013-02-17 07:40:00,31.5,20.7,29.95,SE,135,0.6,1.1,64,0.00,,,0.00,WUHU216HW,2013-02-17 13:40:00,
2013-02-17 07:45:00,31.7,20.9,29.95,SE,135,0.9,1.3,64,0.00,,,0.00,WUHU216HW,2013-02-17 13:45:00,
2013-02-17 07:50:00,31.9,20.7,29.95,SSE,158,0.4,1.3,63,0.00,,,0.00,WUHU216HW,2013-02-17 13:50:00,
2013-02-17 07:55:00,32.0,20.5,29.95,SE,135,2.0,2.0,62,0.00,,,0.00,WUHU216HW,2013-02-17 13:55:00,
2013-02-17 08:00:00,32.2,20.7,29.95,ESE,113,1.2,2.0,62,0.00,,,0.00,WUHU216HW,2013-02-17 14:00:00,
2013-02-17 08:05:00,32.6,21.0,29.95,SE,135,1.1,2.0,62,0.00,,,0.00,WUHU216HW,2013-02-17 14:05:00,
2013-02-17 08:10:00,32.9,20.6,29.95,ESE,116,1.5,2.5,60,0.00,,,0.00,WUHU216HW,2013-02-17 14:10:00,
2013-02-17 08:15:00,33.3,21.0,29.95,SE,135,3.8,3.8,60,0.00,,,0.00,WUHU216HW,2013-02-17 14:15:00,
2013-02-17 08:20:00,33.7,20.8,29.95,South,180,2.0,4.3,59,0.00,,,0.00,WUHU216HW,2013-02-17 14:20:00,
2013-02-17 08:25:00,34.0,21.2,29.95,ESE,105,1.0,4.3,59,0.00,,,0.00,WUHU216HW,2013-02-17 14:25:00,
2013-02-17 08:30:00,34.4,21.1,29.95,SE,135,2.5,2.5,58,0.00,,,0.00,WUHU216HW,2013-02-17 14:30:00,
2013-02-17 08:35:00,35.1,21.8,29.95,SSE,158,2.5,2.5,58,0.00,,,0.00,WUHU216HW,2013-02-17 14:35:00,
2013-02-17 08:40:00,35.8,22.1,29.95,SSE,158,2.0,3.4,57,0.00,,,0.00,WUHU216HW,2013-02-17 14:40:00,
2013-02-17 08:45:00,36.9,22.2,29.95,SSE,158,1.6,4.9,55,0.00,,,0.00,WUHU216HW,2013-02-17 14:45:00,
2013-02-17 08:50:00,39.2,22.6,29.95,SE,135,2.9,4.9,51,0.00,,,0.00,WUHU216HW,2013-02-17 14:50:00,
2013-02-17 08:55:00,41.2,22.9,29.95,SE,135,1.8,3.6,48,0.00,,,0.00,WUHU216HW,2013-02-17 14:55:00,
2013-02-17 09:00:00,41.4,23.0,29.95,SE,135,2.5,2.5,48,0.00,,,0.00,WUHU216HW,2013-02-17 15:00:00,
2013-02-17 09:05:00,41.8,22.9,29.95,SE,135,3.6,5.4,47,0.00,,,0.00,WUHU216HW,2013-02-17 15:05:00,
2013-02-17 09:10:00,42.5,23.0,29.94,SE,135,2.9,5.4,46,0.00,,,0.00,WUHU216HW,2013-02-17 15:10:00,
2013-02-17 09:15:00,44.5,23.2,29.94,ESE,113,2.9,3.8,43,0.00,,,0.00,WUHU216HW,2013-02-17 15:15:00,
2013-02-17 09:20:00,45.5,24.8,29.94,SE,135,1.3,3.8,44,0.00,,,0.00,WUHU216HW,2013-02-17 15:20:00,
2013-02-17 09:25:00,46.6,24.7,29.94,ESE,113,3.6,4.3,42,0.00,,,0.00,WUHU216HW,2013-02-17 15:25:00,
2013-02-17 09:30:00,47.7,26.2,29.94,SSE,162,3.2,4.3,43,0.00,,,0.00,WUHU216HW,2013-02-17 15:30:00,
2013-02-17 09:35:00,49.1,26.9,29.94,SSE,158,2.8,4.0,42,0.00,,,0.00,WUHU216HW,2013-02-17 15:35:00,
2013-02-17 09:40:00,49.3,26.0,29.94,South,180,3.4,4.0,40,0.00,,,0.00,WUHU216HW,2013-02-17 15:40:00,
2013-02-17 09:45:00,49.3,26.0,29.94,South,184,2.2,3.4,40,0.00,,,0.00,WUHU216HW,2013-02-17 15:45:00,
2013-02-17 09:50:00,49.0,25.0,29.94,SSE,166,2.4,3.1,39,0.00,,,0.00,WUHU216HW,2013-02-17 15:50:00,
2013-02-17 09:55:00,49.0,25.7,29.94,SSE,158,4.7,4.7,40,0.00,,,0.00,WUHU216HW,2013-02-17 15:55:00,
2013-02-17 10:00:00,49.3,26.0,29.94,SE,135,2.7,4.7,40,0.00,,,0.00,WUHU216HW,2013-02-17 16:00:00,
2013-02-17 10:05:00,49.7,26.9,29.94,SSW,205,2.9,4.0,41,0.00,,,0.00,WUHU216HW,2013-02-17 16:05:00,
2013-02-17 10:10:00,49.3,26.6,29.94,South,177,2.8,4.0,41,0.00,,,0.00,WUHU216HW,2013-02-17 16:10:00,
2013-02-17 10:15:00,49.3,26.0,29.93,ESE,123,2.8,3.4,40,0.00,,,0.00,WUHU216HW,2013-02-17 16:15:00,
2013-02-17 10:20:00,50.4,27.6,29.93,SE,135,3.1,3.8,41,0.00,,,0.00,WUHU216HW,2013-02-17 16:20:00,
2013-02-17 10:25:00,51.1,27.6,29.93,South,187,3.1,3.8,40,0.00,,,0.00,WUHU216HW,2013-02-17 16:25:00,
2013-02-17 10:30:00,52.4,28.1,29.93,South,186,3.2,3.8,39,0.00,,,0.00,WUHU216HW,2013-02-17 16:30:00,
2013-02-17 10:35:00,52.2,27.9,29.93,SSW,203,3.5,4.0,39,0.00,,,0.00,WUHU216HW,2013-02-17 16:35:00,
2013-02-17 10:40:00,52.6,28.3,29.92,SE,128,1.5,4.0,39,0.00,,,0.00,WUHU216HW,2013-02-17 16:40:00,
2013-02-17 10:45:00,52.9,28.5,29.92,SSE,158,4.5,4.5,39,0.00,,,0.00,WUHU216HW,2013-02-17 16:45:00,
2013-02-17 10:50:00,53.3,27.6,29.92,SE,135,2.7,4.5,37,0.00,,,0.00,WUHU216HW,2013-02-17 16:50:00,
2013-02-17 10:55:00,53.3,28.2,29.92,SE,135,2.5,2.7,38,0.00,,,0.00,WUHU216HW,2013-02-17 16:55:00,
2013-02-17 11:00:00,53.6,28.5,29.92,SE,128,1.3,2.5,38,0.00,,,0.00,WUHU216HW,2013-02-17 17:00:00,
2013-02-17 11:05:00,53.8,28.0,29.92,SE,135,3.4,3.4,37,0.00,,,0.00,WUHU216HW,2013-02-17 17:05:00,
2013-02-17 11:10:00,53.6,28.5,29.92,ESE,113,3.8,4.9,38,0.00,,,0.00,WUHU216HW,2013-02-17 17:10:00,
2013-02-17 11:15:00,54.0,28.8,29.91,SE,135,4.3,4.9,38,0.00,,,0.00,WUHU216HW,2013-02-17 17:15:00,
2013-02-17 11:20:00,54.0,28.8,29.91,ESE,116,2.0,4.3,38,0.00,,,0.00,WUHU216HW,2013-02-17 17:20:00,
2013-02-17 11:25:00,53.8,28.7,29.91,SE,140,3.2,3.8,38,0.00,,,0.00,WUHU216HW,2013-02-17 17:25:00,
2013-02-17 11:30:00,54.4,29.9,29.91,SSE,158,2.5,3.8,39,0.00,,,0.00,WUHU216HW,2013-02-17 17:30:00,
2013-02-17 11:35:00,55.4,30.8,29.91,SE,135,2.2,3.6,39,0.00,,,0.00,WUHU216HW,2013-02-17 17:35:00,
2013-02-17 11:40:00,56.0,29.9,29.90,SSE,158,2.7,4.3,37,0.00,,,0.00,WUHU216HW,2013-02-17 17:40:00,
2013-02-17 11:45:00,56.0,29.9,29.90,South,180,3.4,4.5,37,0.00,,,0.00,WUHU216HW,2013-02-17 17:45:00,
2013-02-17 11:50:00,56.5,30.3,29.89,SE,135,4.0,4.5,37,0.00,,,0.00,WUHU216HW,2013-02-17 17:50:00,
2013-02-17 11:55:00,56.7,30.5,29.89,ESE,113,2.7,4.0,37,0.00,,,0.00,WUHU216HW,2013-02-17 17:55:00,
2013-02-17 12:00:00,56.9,30.7,29.89,SSW,192,1.5,5.8,37,0.00,,,0.00,WUHU216HW,2013-02-17 18:00:00,
2013-02-17 12:05:00,57.2,31.1,29.88,ESE,113,2.2,5.8,37,0.00,,,0.00,WUHU216HW,2013-02-17 18:05:00,
2013-02-17 12:10:00,57.8,30.1,29.88,ESE,113,3.4,5.8,35,0.00,,,0.00,WUHU216HW,2013-02-17 18:10:00,
2013-02-17 12:15:00,57.8,30.8,29.88,SE,129,2.4,3.4,36,0.00,,,0.00,WUHU216HW,2013-02-17 18:15:00,
2013-02-17 12:20:00,57.6,30.6,29.88,SSE,163,2.2,6.3,36,0.00,,,0.00,WUHU216HW,2013-02-17 18:20:00,
2013-02-17 12:25:00,57.6,30.6,29.87,SE,135,3.1,6.3,36,0.00,,,0.00,WUHU216HW,2013-02-17 18:25:00,
2013-02-17 12:30:00,58.3,30.6,29.87,SE,142,3.5,4.3,35,0.00,,,0.00,WUHU216HW,2013-02-17 18:30:00,
2013-02-17 12:35:00,58.3,31.3,29.86,SSE,158,5.6,5.6,36,0.00,,,0.00,WUHU216HW,2013-02-17 18:35:00,
2013-02-17 12:40:00,58.7,30.9,29.86,SE,135,2.5,5.6,35,0.00,,,0.00,WUHU216HW,2013-02-17 18:40:00,
2013-02-17 12:45:00,58.7,30.3,29.86,SE,129,3.4,6.5,34,0.00,,,0.00,WUHU216HW,2013-02-17 18:45:00,
2013-02-17 12:50:00,59.4,30.9,29.86,SSE,158,3.1,6.5,34,0.00,,,0.00,WUHU216HW,2013-02-17 18:50:00,
2013-02-17 12:55:00,59.8,31.2,29.85,SSE,160,2.0,4.3,34,0.00,,,0.00,WUHU216HW,2013-02-17 18:55:00,
2013-02-17 13:00:00,59.9,29.9,29.85,East,90,2.7,4.3,32,0.00,,,0.00,WUHU216HW,2013-02-17 19:00:00,
2013-02-17 13:05:00,59.8,30.4,29.85,ESE,102,5.7,6.3,33,0.00,,,0.00,WUHU216HW,2013-02-17 19:05:00,
2013-02-17 13:10:00,59.8,31.2,29.85,SSW,211,2.8,6.3,34,0.00,,,0.00,WUHU216HW,2013-02-17 19:10:00,
2013-02-17 13:15:00,60.1,30.7,29.84,SSE,168,3.7,4.3,33,0.00,,,0.00,WUHU216HW,2013-02-17 19:15:00,
2013-02-17 13:20:00,60.1,30.7,29.84,SE,135,3.8,4.5,33,0.00,,,0.00,WUHU216HW,2013-02-17 19:20:00,
2013-02-17 13:25:00,60.3,31.6,29.83,SE,139,3.0,4.9,34,0.00,,,0.00,WUHU216HW,2013-02-17 19:25:00,
2013-02-17 13:30:00,60.5,31.1,29.83,SSE,158,3.0,4.9,33,0.00,,,0.00,WUHU216HW,2013-02-17 19:30:00,
2013-02-17 13:35:00,60.8,31.3,29.83,SSE,158,2.2,4.7,33,0.00,,,0.00,WUHU216HW,2013-02-17 19:35:00,
2013-02-17 13:40:00,60.8,30.6,29.82,ESE,113,4.5,6.0,32,0.00,,,0.00,WUHU216HW,2013-02-17 19:40:00,
2013-02-17 13:45:00,60.8,32.0,29.82,NE,45,2.0,6.0,34,0.00,,,0.00,WUHU216HW,2013-02-17 19:45:00,
2013-02-17 13:50:00,61.6,32.0,29.82,SE,135,1.6,3.4,33,0.00,,,0.00,WUHU216HW,2013-02-17 19:50:00,
2013-02-17 13:55:00,61.2,31.0,29.82,SSE,158,5.1,5.1,32,0.00,,,0.00,WUHU216HW,2013-02-17 19:55:00,
2013-02-17 14:00:00,61.4,32.5,29.82,SSW,203,2.9,5.1,34,0.00,,,0.00,WUHU216HW,2013-02-17 20:00:00,
2013-02-17 14:05:00,61.4,31.1,29.81,South,180,3.1,4.5,32,0.00,,,0.00,WUHU216HW,2013-02-17 20:05:00,
2013-02-17 14:10:00,61.2,31.7,29.81,SE,144,3.9,6.0,33,0.00,,,0.00,WUHU216HW,2013-02-17 20:10:00,
2013-02-17 14:15:00,61.6,32.0,29.81,SW,223,2.2,6.3,33,0.00,,,0.00,WUHU216HW,2013-02-17 20:15:00,
2013-02-17 14:20:00,61.9,32.3,29.80,South,188,2.6,6.5,33,0.00,,,0.00,WUHU216HW,2013-02-17 20:20:00,
2013-02-17 14:25:00,61.7,31.4,29.80,East,90,3.4,6.5,32,0.00,,,0.00,WUHU216HW,2013-02-17 20:25:00,
2013-02-17 14:30:00,61.9,31.6,29.80,SE,135,2.9,4.7,32,0.00,,,0.00,WUHU216HW,2013-02-17 20:30:00,
2013-02-17 14:35:00,61.9,32.3,29.80,SSE,158,2.9,4.7,33,0.00,,,0.00,WUHU216HW,2013-02-17 20:35:00,
2013-02-17 14:40:00,61.9,32.3,29.79,SE,126,3.3,6.5,33,0.00,,,0.00,WUHU216HW,2013-02-17 20:40:00,
2013-02-17 14:45:00,62.1,31.8,29.79,SE,131,4.3,6.5,32,0.00,,,0.00,WUHU216HW,2013-02-17 20:45:00,
2013-02-17 14:50:00,62.3,31.9,29.79,SE,135,3.8,5.4,32,0.00,,,0.00,WUHU216HW,2013-02-17 20:50:00,
2013-02-17 14:55:00,62.6,32.9,29.79,SE,135,2.9,5.4,33,0.00,,,0.00,WUHU216HW,2013-02-17 20:55:00,
2013-02-17 15:00:00,63.0,32.6,29.79,SSE,158,4.0,5.1,32,0.00,,,0.00,WUHU216HW,2013-02-17 21:00:00,
2013-02-17 15:05:00,63.2,32.7,29.78,SE,135,2.2,5.1,32,0.00,,,0.00,WUHU216HW,2013-02-17 21:05:00,
2013-02-17 15:10:00,63.4,32.9,29.78,SE,129,2.5,4.3,32,0.00,,,0.00,WUHU216HW,2013-02-17 21:10:00,
2013-02-17 15:15:00,63.4,32.1,29.78,SSE,158,4.5,4.5,31,0.00,,,0.00,WUHU216HW,2013-02-17 21:15:00,
2013-02-17 15:20:00,63.4,32.9,29.78,SW,217,1.5,4.5,32,0.00,,,0.00,WUHU216HW,2013-02-17 21:20:00,
2013-02-17 15:25:00,63.5,33.0,29.78,SE,135,2.7,4.3,32,0.00,,,0.00,WUHU216HW,2013-02-17 21:25:00,
2013-02-17 15:30:00,63.4,32.1,29.78,SE,142,4.4,5.8,31,0.00,,,0.00,WUHU216HW,2013-02-17 21:30:00,
2013-02-17 15:35:00,63.2,32.7,29.78,SSE,148,2.3,5.8,32,0.00,,,0.00,WUHU216HW,2013-02-17 21:35:00,
2013-02-17 15:40:00,63.0,31.9,29.78,ESE,104,1.2,3.8,31,0.00,,,0.00,WUHU216HW,2013-02-17 21:40:00,
2013-02-17 15:45:00,63.2,32.7,29.78,ESE,113,2.5,3.6,32,0.00,,,0.00,WUHU216HW,2013-02-17 21:45:00,
2013-02-17 15:50:00,63.4,32.9,29.78,South,180,5.8,5.8,32,0.00,,,0.00,WUHU216HW,2013-02-17 21:50:00,
2013-02-17 15:55:00,63.2,32.0,29.78,ESE,113,3.9,5.8,31,0.00,,,0.00,WUHU216HW,2013-02-17 21:55:00,
2013-02-17 16:00:00,63.4,32.9,29.77,SE,135,2.1,4.3,32,0.00,,,0.00,WUHU216HW,2013-02-17 22:00:00,
2013-02-17 16:05:00,63.4,32.9,29.77,SE,135,3.5,4.3,32,0.00,,,0.00,WUHU216HW,2013-02-17 22:05:00,
2013-02-17 16:10:00,63.4,32.9,29.77,SE,135,3.1,4.3,32,0.00,,,0.00,WUHU216HW,2013-02-17 22:10:00,
2013-02-17 16:15:00,63.5,33.0,29.76,SE,135,2.0,3.4,32,0.00,,,0.00,WUHU216HW,2013-02-17 22:15:00,
2013-02-17 16:20:00,63.7,32.5,29.77,SSW,204,3.7,4.0,31,0.00,,,0.00,WUHU216HW,2013-02-17 22:20:00,
2013-02-17 16:25:00,63.4,32.9,29.76,SSE,147,2.0,4.5,32,0.00,,,0.00,WUHU216HW,2013-02-17 22:25:00,
2013-02-17 16:30:00,63.2,32.7,29.77,SSE,158,1.8,4.5,32,0.00,,,0.00,WUHU216HW,2013-02-17 22:30:00,
2013-02-17 16:35:00,63.0,32.6,29.77,SSE,158,2.9,2.9,32,0.00,,,0.00,WUHU216HW,2013-02-17 22:35:00,
2013-02-17 16:40:00,63.0,32.6,29.76,ESE,113,2.1,2.9,32,0.00,,,0.00,WUHU216HW,2013-02-17 22:40:00,
2013-02-17 16:45:00,63.2,32.7,29.77,ESE,116,1.7,2.9,32,0.00,,,0.00,WUHU216HW,2013-02-17 22:45:00,
2013-02-17 16:50:00,63.2,32.7,29.76,SSE,164,3.5,4.5,32,0.00,,,0.00,WUHU216HW,2013-02-17 22:50:00,
2013-02-17 16:55:00,63.0,32.6,29.76,SE,135,4.0,4.5,32,0.00,,,0.00,WUHU216HW,2013-02-17 22:55:00,
2013-02-17 17:00:00,62.5,32.8,29.76,ESE,113,1.6,4.0,33,0.00,,,0.00,WUHU216HW,2013-02-17 23:00:00,
2013-02-17 17:05:00,61.9,32.3,29.76,SE,146,2.4,4.0,33,0.00,,,0.00,WUHU216HW,2013-02-17 23:05:00,
2013-02-17 17:10:00,61.6,32.0,29.76,ESE,113,3.4,4.0,33,0.00,,,0.00,WUHU216HW,2013-02-17 23:10:00,
2013-02-17 17:15:00,61.4,31.8,29.76,ESE,113,1.7,4.0,33,0.00,,,0.00,WUHU216HW,2013-02-17 23:15:00,
2013-02-17 17:20:00,61.4,32.5,29.75,ESE,113,0.7,2.7,34,0.00,,,0.00,WUHU216HW,2013-02-17 23:20:00,
2013-02-17 17:25:00,61.6,32.7,29.76,SE,135,0.0,1.1,34,0.00,,,0.00,WUHU216HW,2013-02-17 23:25:00,
2013-02-17 17:30:00,60.8,32.0,29.76,SSE,158,0.7,0.7,34,0.00,,,0.00,WUHU216HW,2013-02-17 23:30:00,
2013-02-17 17:35:00,60.1,32.9,29.76,ESE,113,0.6,0.7,36,0.00,,,0.00,WUHU216HW,2013-02-17 23:35:00,
2013-02-17 17:40:00,59.2,32.1,29.76,ESE,113,1.1,1.3,36,0.00,,,0.00,WUHU216HW,2013-02-17 23:40:00,
2013-02-17 17:45:00,59.0,30.5,29.76,ESE,116,1.5,2.5,34,0.00,,,0.00,WUHU216HW,2013-02-17 23:45:00,
2013-02-17 17:50:00,59.0,30.5,29.76,SE,135,0.9,3.4,34,0.00,,,0.00,WUHU216HW,2013-02-17 23:50:00,
2013-02-17 17:55:00,58.9,30.3,29.76,SSE,158,2.5,3.4,34,0.00,,,0.00,WUHU216HW,2013-02-17 23:55:00,
2013-02-17 18:00:00,58.7,30.3,29.76,SSE,158,1.1,2.5,34,0.00,,,0.00,WUHU216HW,2013-02-18 00:00:00,
2013-02-17 18:05:00,58.3,29.9,29.76,South,180,1.8,1.8,34,0.00,,,0.00,WUHU216HW,2013-02-18 00:05:00,
2013-02-17 18:10:00,58.0,29.5,29.76,SSE,151,1.3,1.8,34,0.00,,,0.00,WUHU216HW,2013-02-18 00:10:00,
2013-02-17 18:15:00,57.8,30.1,29.76,SE,135,1.1,1.6,35,0.00,,,0.00,WUHU216HW,2013-02-18 00:15:00,
2013-02-17 18:20:00,57.6,29.3,29.76,SE,143,0.6,3.4,34,0.00,,,0.00,WUHU216HW,2013-02-18 00:20:00,
2013-02-17 18:25:00,57.2,30.3,29.76,SSE,158,1.1,3.4,36,0.00,,,0.00,WUHU216HW,2013-02-18 00:25:00,
2013-02-17 18:30:00,57.1,30.2,29.76,ESE,113,1.1,1.8,36,0.00,,,0.00,WUHU216HW,2013-02-18 00:30:00,
2013-02-17 18:35:00,56.7,29.8,29.76,SE,129,1.3,1.8,36,0.00,,,0.00,WUHU216HW,2013-02-18 00:35:00,
2013-02-17 18:40:00,56.5,30.3,29.76,NE,45,2.5,2.5,37,0.00,,,0.00,WUHU216HW,2013-02-18 00:40:00,
2013-02-17 18:45:00,56.5,30.3,29.76,SE,135,2.2,4.0,37,0.00,,,0.00,WUHU216HW,2013-02-18 00:45:00,
2013-02-17 18:50:00,56.5,30.3,29.76,South,180,1.3,4.0,37,0.00,,,0.00,WUHU216HW,2013-02-18 00:50:00,
2013-02-17 18:55:00,56.3,30.3,29.76,SSE,147,2.0,2.9,37,0.00,,,0.00,WUHU216HW,2013-02-18 00:55:00,
2013-02-17 19:01:00,56.2,30.8,29.76,SSE,158,2.5,2.9,38,0.00,,,0.00,WUHU216HW,2013-02-18 01:01:00,
2013-02-17 19:06:00,56.0,30.6,29.76,South,180,1.8,2.5,38,0.00,,,0.00,WUHU216HW,2013-02-18 01:06:00,
2013-02-17 19:11:00,55.8,30.4,29.76,SE,135,0.7,2.0,38,0.00,,,0.00,WUHU216HW,2013-02-18 01:11:00,
2013-02-17 19:16:00,55.6,30.2,29.76,SSE,158,1.1,2.0,38,0.00,,,0.00,WUHU216HW,2013-02-18 01:16:00,
2013-02-17 19:20:00,55.3,30.6,29.76,ESE,113,0.9,1.3,39,0.00,,,0.00,WUHU216HW,2013-02-18 01:20:00,
2013-02-17 19:25:00,54.9,31.1,29.77,SE,135,1.1,1.3,40,0.00,,,0.00,WUHU216HW,2013-02-18 01:25:00,
2013-02-17 19:31:00,54.5,30.7,29.76,SE,135,1.1,1.8,40,0.00,,,0.00,WUHU216HW,2013-02-18 01:31:00,
2013-02-17 19:35:00,54.0,30.8,29.76,SE,135,1.1,1.8,41,0.00,,,0.00,WUHU216HW,2013-02-18 01:35:00,
2013-02-17 19:41:00,53.6,30.4,29.76,ESE,102,0.8,1.6,41,0.00,,,0.00,WUHU216HW,2013-02-18 01:41:00,
2013-02-17 19:46:00,53.3,30.7,29.76,SE,135,1.0,2.0,42,0.00,,,0.00,WUHU216HW,2013-02-18 01:46:00,
2013-02-17 19:51:00,53.3,30.7,29.76,East,94,1.3,3.4,42,0.00,,,0.00,WUHU216HW,2013-02-18 01:51:00,
2013-02-17 19:56:00,53.6,30.4,29.76,SSE,158,3.8,4.5,41,0.00,,,0.00,WUHU216HW,2013-02-18 01:56:00,
2013-02-17 20:01:00,54.0,30.8,29.76,SSE,166,2.0,4.5,41,0.00,,,0.00,WUHU216HW,2013-02-18 02:01:00,
2013-02-17 20:06:00,53.8,30.6,29.76,SE,135,4.2,6.5,41,0.00,,,0.00,WUHU216HW,2013-02-18 02:06:00,
2013-02-17 20:11:00,53.8,31.1,29.76,ESE,113,3.1,6.5,42,0.00,,,0.00,WUHU216HW,2013-02-18 02:11:00,
2013-02-17 20:16:00,53.6,31.0,29.76,East,96,1.7,3.1,42,0.00,,,0.00,WUHU216HW,2013-02-18 02:16:00,
2013-02-17 20:21:00,53.3,31.2,29.76,SE,135,2.9,3.1,43,0.00,,,0.00,WUHU216HW,2013-02-18 02:21:00,
2013-02-17 20:26:00,53.3,31.2,29.76,SSE,147,2.3,3.1,43,0.00,,,0.00,WUHU216HW,2013-02-18 02:26:00,
2013-02-17 20:31:00,53.1,31.6,29.76,South,180,3.8,4.0,44,0.00,,,0.00,WUHU216HW,2013-02-18 02:31:00,
2013-02-17 20:36:00,52.9,31.5,29.76,South,180,4.7,5.8,44,0.00,,,0.00,WUHU216HW,2013-02-18 02:36:00,
2013-02-17 20:40:00,52.6,31.1,29.76,ESE,113,3.4,5.8,44,0.00,,,0.00,WUHU216HW,2013-02-18 02:40:00,
2013-02-17 20:46:00,52.4,31.0,29.76,SE,135,1.8,4.0,44,0.00,,,0.00,WUHU216HW,2013-02-18 02:46:00,
2013-02-17 20:51:00,52.2,31.4,29.75,SE,135,1.8,4.0,45,0.00,,,0.00,WUHU216HW,2013-02-18 02:51:00,
2013-02-17 20:56:00,52.0,31.8,29.75,SSE,158,3.1,4.0,46,0.00,,,0.00,WUHU216HW,2013-02-18 02:56:00,
2013-02-17 21:01:00,51.8,31.6,29.75,SE,136,2.0,3.1,46,0.00,,,0.00,WUHU216HW,2013-02-18 03:01:00,
2013-02-17 21:06:00,51.5,31.9,29.75,SSE,158,3.6,5.1,47,0.00,,,0.00,WUHU216HW,2013-02-18 03:06:00,
2013-02-17 21:11:00,51.5,31.9,29.75,SE,135,3.4,5.1,47,0.00,,,0.00,WUHU216HW,2013-02-18 03:11:00,
2013-02-17 21:16:00,51.1,31.5,29.75,ESE,121,2.2,3.4,47,0.00,,,0.00,WUHU216HW,2013-02-18 03:16:00,
2013-02-17 21:21:00,50.9,32.0,29.75,SE,135,2.7,3.4,48,0.00,,,0.00,WUHU216HW,2013-02-18 03:21:00,
2013-02-17 21:26:00,50.8,31.8,29.75,SE,128,4.0,5.4,48,0.00,,,0.00,WUHU216HW,2013-02-18 03:26:00,
2013-02-17 21:31:00,50.6,32.1,29.75,SSE,158,1.8,5.4,49,0.00,,,0.00,WUHU216HW,2013-02-18 03:31:00,
2013-02-17 21:36:00,50.2,31.9,29.75,ENE,78,2.3,3.6,49,0.00,,,0.00,WUHU216HW,2013-02-18 03:36:00,
2013-02-17 21:41:00,50.0,32.2,29.74,SE,138,2.3,3.1,50,0.00,,,0.00,WUHU216HW,2013-02-18 03:41:00,
2013-02-17 21:46:00,49.9,32.0,29.74,SE,126,2.0,2.5,50,0.00,,,0.00,WUHU216HW,2013-02-18 03:46:00,
2013-02-17 21:51:00,49.9,32.5,29.74,SSE,155,1.9,3.4,51,0.00,,,0.00,WUHU216HW,2013-02-18 03:51:00,
2013-02-17 21:56:00,49.7,32.3,29.74,ESE,117,3.0,4.7,51,0.00,,,0.00,WUHU216HW,2013-02-18 03:56:00,
2013-02-17 22:01:00,49.5,32.1,29.74,SE,135,4.9,6.0,51,0.00,,,0.00,WUHU216HW,2013-02-18 04:01:00,
2013-02-17 22:06:00,49.3,32.4,29.74,SE,127,2.3,6.0,52,0.00,,,0.00,WUHU216HW,2013-02-18 04:06:00,
2013-02-17 22:11:00,49.1,32.2,29.74,SE,135,2.5,3.1,52,0.00,,,0.00,WUHU216HW,2013-02-18 04:11:00,
2013-02-17 22:16:00,49.0,32.0,29.74,SE,135,1.8,3.1,52,0.00,,,0.00,WUHU216HW,2013-02-18 04:16:00,
2013-02-17 22:21:00,48.8,32.3,29.74,SSE,147,1.9,2.9,53,0.00,,,0.00,WUHU216HW,2013-02-18 04:21:00,
2013-02-17 22:26:00,48.8,32.3,29.74,SSE,158,3.1,4.3,53,0.00,,,0.00,WUHU216HW,2013-02-18 04:26:00,
2013-02-17 22:31:00,48.8,32.3,29.74,ESE,113,2.0,4.3,53,0.00,,,0.00,WUHU216HW,2013-02-18 04:31:00,
2013-02-17 22:36:00,48.8,32.3,29.74,SE,130,1.6,6.3,53,0.00,,,0.00,WUHU216HW,2013-02-18 04:36:00,
2013-02-17 22:41:00,48.6,32.7,29.74,SSE,163,2.8,6.3,54,0.00,,,0.00,WUHU216HW,2013-02-18 04:41:00,
2013-02-17 22:46:00,48.4,32.5,29.74,SE,146,1.9,3.6,54,0.00,,,0.00,WUHU216HW,2013-02-18 04:46:00,
2013-02-17 22:51:00,48.2,32.8,29.74,SE,142,1.5,2.5,55,0.00,,,0.00,WUHU216HW,2013-02-18 04:51:00,
2013-02-17 22:56:00,48.2,32.8,29.74,South,180,3.1,3.1,55,0.00,,,0.00,WUHU216HW,2013-02-18 04:56:00,
2013-02-17 23:00:00,48.1,32.6,29.74,SSE,152,1.6,3.1,55,0.00,,,0.00,WUHU216HW,2013-02-18 05:00:00,
2013-02-17 23:05:00,47.9,32.4,29.74,SE,135,2.5,3.4,55,0.00,,,0.00,WUHU216HW,2013-02-18 05:05:00,
2013-02-17 23:10:00,47.9,32.9,29.74,ESE,117,1.6,3.4,56,0.00,,,0.00,WUHU216HW,2013-02-18 05:10:00,
2013-02-17 23:15:00,47.7,32.7,29.74,SE,135,3.1,3.1,56,0.00,,,0.00,WUHU216HW,2013-02-18 05:15:00,
2013-02-17 23:20:00,47.5,32.6,29.74,SE,135,1.8,3.1,56,0.00,,,0.00,WUHU216HW,2013-02-18 05:20:00,
2013-02-17 23:25:00,47.5,33.0,29.74,ESE,113,1.6,2.0,57,0.00,,,0.00,WUHU216HW,2013-02-18 05:25:00,
2013-02-17 23:30:00,47.3,32.9,29.74,SE,135,0.9,2.0,57,0.00,,,0.00,WUHU216HW,2013-02-18 05:30:00,
2013-02-17 23:35:00,47.3,32.9,29.73,SE,135,4.0,4.0,57,0.00,,,0.00,WUHU216HW,2013-02-18 05:35:00,
2013-02-17 23:40:00,47.3,32.9,29.73,ESE,113,1.1,4.0,57,0.00,,,0.00,WUHU216HW,2013-02-18 05:40:00,
2013-02-17 23:45:00,47.2,33.1,29.73,South,180,2.7,3.4,58,0.00,,,0.00,WUHU216HW,2013-02-18 05:45:00,
2013-02-17 23:50:00,47.2,33.1,29.73,SE,135,1.1,2.7,58,0.00,,,0.00,WUHU216HW,2013-02-18 05:50:00,
2013-02-17 23:55:00,47.2,33.1,29.73,ESE,113,2.0,4.3,58,0.00,,,0.00,WUHU216HW,2013-02-18 05:55:00,